Location: Mascot Post Office (historical)
(40.2645°N, 99.5462°W)
Time: 02:47:08
(UTC+00:00)

SL-24 DEB - Pass Details

Date: 14 July 2020
Orbit: 667 x 698 km, 92.0° (Epoch: 14 August)

Event Time Altitude Azimuth Distance (km) Brightness Sun altitude
Rises 07:30:34 0° 7° (N) 3,068 8.9 -27.2°
Reaches altitude 10° 07:32:51 10° 10° (N) 2,152 7.8 -27.1°
Enters shadow 07:37:16 66° 67° (ENE) 761 4.5 -26.9°
